Regional Weather Roundup
Issued by NWS State College, PA

Home | Current Version | Previous Version | Graphics & Text | Print | Product List | Glossary Off
Versions: 1 2 3 4 5 6 7 8 9 10 11 12 13 14 15 16 17 18 19 20 21 22 23 24 25 26 27 28 29 30 31 32 33 34 35 36 37 38 39 40 41 42 43 44 45 46 47 48 49 50

000
ASUS41 KCTP 221803
RWRCTP

REGIONAL WEATHER ROUNDUP
NATIONAL WEATHER SERVICE STATE COLLEGE PA
200 PM EDT FRI AUG 22 2014

Note: "fair" indicates few or no clouds below 12,000 feet with no
significant weather and/or obstructions to visibility.

* = STATION THAT DOES NOT REPORT PRECIPITATION /E.G. RAIN...SNOW...ETC/
    THUNDER OR FOG.

PAZ002>004-007>009-013>016-020>023-029>032-221900-
WESTERN PENNSYLVANIA

CITY           SKY/WX    TMP DP  RH WIND       PRES   REMARKS
ERIE           PTSUNNY   79  69  71 N6        29.98S
MEADVILLE      CLOUDY    77  68  73 SW5       30.01S
FRANKLIN*      CLOUDY    73  66  78 W6        30.03S
NEW CASTLE     NOT AVBL
BEAVER COUNTY  PTSUNNY   81  68  65 SW3       30.01F
BUTLER*        MOSUNNY   79  70  73 S3        30.02F
PITTSBURGH INT CLOUDY    79  68  69 CALM      30.00F
PITTSBURGH     PTSUNNY   77  67  71 S3        30.00F
INDIANA*       PTSUNNY   75  68  78 W6        30.06S
LATROBE        PTSUNNY   79  72  78 CALM      30.02F
WASHINGTON CO* CLOUDY    79  70  73 SW6       30.01S
$$

PAZ004>006-010>012-017>019-024>028-033>037-041-042-045-046-049>053-221900-
CENTRAL PENNSYLVANIA

CITY           SKY/WX    TMP DP  RH WIND       PRES   REMARKS
BRADFORD       MOSUNNY   76  63  64 VRB3      30.03F
DUBOIS         LGT RAIN  70  68  93 E3        30.04S FOG
CLEARFIELD     LGT RAIN  71  70  96 CALM      30.04S FOG
JOHNSTOWN      LGT RAIN  72  65  78 CALM      30.06S
ALTOONA        CLOUDY    71  67  87 CALM      30.05S
STATE COLLEGE  CLOUDY    73  68  83 W7        30.02F
WILLIAMSPORT   PTSUNNY   80  66  62 SE8       29.97F
SELINSGROVE    PTSUNNY   80  69  69 VRB7      29.98F
FT INDIANTOWN  PTSUNNY   75  70  83 VRB3      30.01F
CAPITAL CITY   CLOUDY    75  67  76 E3        30.00F
HARRISBURG     CLOUDY    77  68  73 SE3       29.99F
YORK           CLOUDY    77  69  76 E6        30.00F
$$

PAZ038>040-043-044-047-048-054-055-060>062-067>071-221900-
EASTERN PENNSYLVANIA

CITY           SKY/WX    TMP DP  RH WIND       PRES   REMARKS
SCRANTON       CLOUDY    73  65  75 SE6       30.02S
MOUNT POCONO   FOG       64  61  90 SE7       30.08R VSB 3/4
ALLENTOWN      CLOUDY    74  64  71 E5        30.02F
QUAKERTOWN*    CLOUDY    73  66  78 MISG      30.03F
READING        CLOUDY    75  65  70 SE7       30.01S
LANCASTER      CLOUDY    74  66  76 E5        30.01S
COATESVILLE    CLOUDY    73  73 100 E6G17     30.03F
POTTSTOWN      CLOUDY    75  66  73 VRB5      30.02F
BLUE BELL      CLOUDY    77  68  73 SE5       30.01S
DOYLESTOWN     CLOUDY    74  67  78 VRB6      30.02S
WILLOW GROVE   NOT AVBL
NORTH PHILA    PTSUNNY   77  66  68 E10       30.03F
PHILADELPHIA   PTSUNNY   79  67  66 E10       30.00F
$$



USA.gov is the U.S. government's official web portal to all federal, state and local government web resources and services.